User: anonymous   Login
Location: Del Oro Observatory
(38.3044°N, 104.8119°W)
Time: 18:28:24
(UTC-06:00)
Language:

Cosmos 1602 Rocket - Orbit

View from above orbital plane
View from above orbital plane
View from above satellite
View from above satellite

Ground track
Ground track

The orbit data is extracted from the following two-line orbital elements,

1 15332U 84105B   15214.22093491  .00000231  00000-0  25226-4 0  9992
2 15332 082.5356 108.2614 0022765 107.5002 007.7833 14.83113814665058
Epoch (UTC): 02 August 2015 05:18:08
Eccentricity: 0.0022765
inclination: 82.5356°
perigee height: 603 km
apogee height: 635 km
right ascension of ascending node: 108.2614°
argument of perigee: 107.5002°
revolutions per day: 14.83113814
mean anomaly at epoch: 7.7833°
orbit number at epoch: 66505

The dashed part of the orbit path shows where the satellite is in the earth's shadow,  

DLR